STARLINK-31471, 59568

Orbit data source: Space-Track

STARLINK-31471, 59568 is a payload satellite owned by SpaceX/Seattle (US) in LEO that was launched on Tue, 23 Apr 2024 UTC via an FALCON 9 launch vehicle from the Air Force Eastern Test Range (AFETR). Payload-class satellites include a variety of spacecraft equipped with specific instruments for various scientific and technological missions. These include communications satellites like Starlink; space stations such as the ISS; scientific satellites like the Hubble; Earth observation satellites from companies like Planet Labs, Umbra, and HawkEye 360; GPS; miniature CubeSats for education and research; and military/defense satellites.

Loading next visibility...
Identifier
59568, 2024-076E
Orbit
LEO
Country
Flag of USUS
Related business
Manufacturer
SpaceX/Seattle
Mission
Operational Commercial Communications
Bus & Motor
STARLINK V2M, Unknown motor
Mass
730 kg wet, ~700 kg dry
Launch date (UTC)
2024-04-23 (2 years ago)
Launch vehicle
FALCON 9
Launch site
Air Force Eastern Test Range (AFETR)
Object type
Payload
Rocket body
Debris
Shape & HBR
Box + 2 Pan, 17.7 m
Radar Cross Section
33.884 m², Large (>1 m²)

Expand to show TLE details & history
Last TLE update: 15 hours ago

TLE from 15 hours ago
0 STARLINK-31471
1 59568U 24076E   26035.73063251 -.00000284  00000-0 -78878-6 0  9995
2 59568  43.0018 194.9908 0001282 278.9176  81.1530 15.27578733101372
Epoch: 2026-02-04T17:32Z
TLE epoch observation values (Epoch: 2026-02-04T17:32:06.648Z)
Latitude
-0.00007°
Longitude
157.07001°
Altitude
482.693 km
Speed
7.626 km/s
True Right ascension
12h 59m 57s
True Declination
0° 00' 00"
Sunlit
Object was in full shadow at epoch
Visualization orbit readout
Latitude
Unknown
Longitude
Unknown
Altitude
Unknown
Speed
Unknown
Apparent Right ascension
Unknown
Apparent Declination
Unknown
Sunlit
N/A
Visualization observer readout
Local Sidereal Time
10:49:21
Azimuth
Unknown
Elevation
Unknown
Doppler factor
Unknown
Orbital elements
Apogee altitude
485.878 km
Perigee altitude
484.118 km
Semi-major axis
6,863.135 km
Eccentricity
0.00013
Inclination
43.0018°
RAAN
194.9908°
Arg. of periapsis
278.9176°
True anomaly
81.16752°
Mean anomaly
81.153°
Eccentric anomaly
81.16026°
Mean motion
3.81733 °/min
Orbital period
94.31 mins
BSTAR
-7.8878e-7
Loading maneuver chart data...
Computing Atmospheric mass density...
Loading historical data...
Loading historical data...
Loading historical data...
Loading historical data...
Loading historical data...
Loading historical data...
Loading historical data...

Documentation

Showing up to 5 results
|